STARLINK-30057 (55705 NORAD) Tracking and Keplerian Element Data

This shows tracking and keplerian element data for the satellite.

Feedback or suggestion? Click here.




ElementValue
Catalog55705
NameSTARLINK-30057
Epoch Orbit513
Epoch Day85.16667824
Epoch Year2023
RAAN126.8839
Inclination43.0002
Eccentricity0.0001727
Argument of Perigee246.9156
Mean Anonmoly351.986
Mean Motion15.67979491
Decay Rate-0.00075514
L11 55705U 23026L 23085.16667824 -.00075514 00000+0 -66494-3 0 9998
L22 55705 43.0002 126.8839 0001727 246.9156 351.9860 15.67979491 5139



Live tracking and technical data element details for STARLINK-30057 (NORAD 55705). STARLINK-30057 can be tracked NOW for your location showing map with azimuth and elevation plus other details from your city location.







IsCatalogInMostPopularTable: catalog: 55705, numindb: 4
Update: records affected: 1



GetName: 55705 STARLINK-30057

Hit Count: updated at: Tue, 28 Mar 2023 01:52:08 GMT